Location: Unspecified
(40.7945°N, 0.0000°E)
Time: 15:49:20
(UTC+00:00)

METEOR M2 - Pass Details

Date: 12 August 2020
Orbit: 819 x 827 km, 98.5° (Epoch: 23 September)

Event Time Altitude Azimuth Distance (km) Brightness Sun altitude
Rises 19:39:03 0° 174° (S) 3,346 ? -7.3°
Reaches altitude 10° 19:41:25 10° 178° (S) 2,416 ? -7.7°
Maximum altitude 19:46:43 62° 259° (W) 920 ? -8.6°
Drops below altitude 10° 19:52:02 10° 340° (NNW) 2,427 ? -9.5°
Sets 19:54:26 0° 344° (NNW) 3,363 ? -9.9°
